Temperature
21 21 22 21 24 25 24 23 24 23 23 22 22 22 22 22 22 20 18 17 17 17 17 17 17 17 17 17 17 17 17 17 17 17 17 17 17 17 17 17 17 17 17 17 17 17 18 17 17
21 22 21 23 25 24 23 23 23 23 22 22 22 22 22 21 19 18 17 17 17 17 17 17 17 17 17 17 17 17 17 17 17 17 17 17 17 17 17 17 17 17 17 17 17 17 17 17 17
22 22 23 25 25 24 23 23 23 23 22 22 22 21 21 20 19 18 17 17 17 17 17 17 17 17 17 17 17 17 17 17 17 17 17 17 17 17 17 17 17 17 17 17 17 17 17 17 17
21 22 24 25 24 23 24 24 23 23 22 22 22 22 20 18 18 17 17 17 17 17 17 17 17 17 17 17 17 17 17 17 17 17 17 17 17 17 17 17 17 17 17 17 17 17 17 17 17
22 24 25 24 23 23 24 24 23 24 23 22 22 22 20 18 17 18 17 17 17 17 17 17 17 17 17 17 17 17 17 17 17 17 17 17 17 17 17 17 17 17 17 17 17 17 17 17 17
23 25 25 24 23 23 23 23 23 24 23 22 22 22 19 18 17 17 17 17 17 17 17 17 17 17 17 17 17 17 17 17 17 17 17 17 17 16 16 16 16 17 16 17 16 16 16 16 16
24 25 24 24 23 23 23 23 23 23 23 22 21 22 20 18 17 17 17 17 17 17 17 17 17 17 17 17 17 17 16 16 16 16 16 16 16 16 16 16 16 16 16 16 16 16 16 16 16
23 25 24 24 23 23 23 22 22 22 22 20 21 22 20 18 17 17 17 17 17 17 17 17 17 17 17 16 17 17 16 16 16 16 16 16 16 16 16 16 16 16 16 16 16 16 16 16 16
23 25 24 23 23 23 23 22 21 21 21 20 20 20 19 18 18 18 18 18 17 17 17 17 17 17 16 16 16 16 16 16 16 16 16 16 16 15 15 16 16 16 16 16 16 16 16 16 16
24 24 23 24 24 23 22 22 22 22 22 21 20 19 18 18 18 18 18 18 18 17 17 17 17 17 16 16 16 16 16 16 16 15 15 15 15 15 15 16 16 16 16 16 16 16 16 15 15
24 23 23 23 23 22 22 22 21 22 22 21 20 19 18 18 18 18 18 18 18 18 17 17 17 17 16 16 16 16 16 16 15 15 15 15 15 15 15 15 15 15 15 15 15 15 15 15 15
23 23 22 22 21 22 22 22 21 21 21 20 20 19 19 18 18 18 18 18 18 18 17 17 17 17 16 16 16 16 16 16 15 15 15 15 15 15 15 15 15 15 15 15 15 15 15 15 15
23 22 22 21 21 21 21 21 21 20 19 19 19 19 19 19 19 18 18 18 18 18 17 17 17 17 16 16 16 16 16 16 15 15 15 15 15 15 15 15 15 15 15 15 14 15 15 15 15
22 22 22 22 21 21 21 21 20 20 19 19 19 19 19 18 18 18 18 18 18 18 17 17 17 17 16 16 16 16 16 15 15 15 15 15 15 15 15 15 15 14 14 14 14 15 14 14 14
22 23 22 22 22 21 22 21 21 19 19 19 19 19 18 18 18 18 18 18 18 18 17 17 17 16 16 16 16 16 15 15 15 15 15 15 14 14 14 14 14 14 14 14 14 14 14 14 14
23 23 23 22 22 21 22 22 21 19 19 19 19 19 18 18 18 18 18 18 18 17 17 17 17 16 16 16 16 16 15 15 15 15 15 14 14 14 14 14 14 14 14 14 14 14 14 14 14
23 23 23 22 22 22 22 22 21 19 19 19 19 19 18 18 18 17 17 17 17 17 17 17 17 16 16 16 16 15 15 15 15 15 14 14 14 14 14 14 14 14 14 14 14 14 14 14 14
23 23 23 23 22 22 22 22 21 20 19 20 19 19 19 18 18 17 17 17 17 17 17 17 17 16 16 16 15 15 15 15 15 14 14 14 14 14 14 14 14 14 13 13 13 13 13 13 13
23 23 23 22 22 21 22 21 21 20 19 20 19 19 19 18 17 17 17 16 16 16 16 16 16 16 16 15 15 15 15 14 14 14 14 14 14 14 14 13 13 13 13 13 13 13 13 13 13
23 23 23 22 21 22 22 22 22 20 20 19 19 19 18 18 17 16 16 16 16 16 16 16 16 16 16 15 15 15 14 14 14 14 14 14 14 14 13 13 13 13 13 13 13 13 13 13 13
23 23 23 22 21 21 21 22 22 21 20 19 18 18 18 17 17 16 16 16 16 15 15 16 16 15 15 15 15 14 14 14 14 14 14 14 13 13 13 13 13 12 12 12 12 12 12 12 12
23 22 22 22 22 22 22 22 23 22 21 20 19 18 18 17 17 16 15 15 15 15 15 15 15 15 15 15 14 14 14 14 14 13 13 13 13 13 13 13 12 12 12 12 12 12 12 12 12
22 21 22 22 22 22 22 22 23 22 21 21 20 19 18 17 16 16 15 15 15 15 15 15 15 15 15 14 14 14 14 13 13 13 13 13 13 13 13 12 12 12 12 12 12 12 12 12 12
21 22 21 21 22 22 22 22 22 23 22 21 20 19 18 17 16 16 15 15 15 15 15 15 15 15 14 14 14 14 14 13 13 13 13 13 12 12 12 12 12 12 11 11 11 11 11 11 11
22 22 22 22 22 22 22 21 22 22 21 21 20 19 18 17 16 16 15 15 15 14 14 15 14 14 14 14 14 13 13 13 13 13 12 12 12 12 12 12 11 11 11 11 11 11 11 11 11
22 22 21 21 22 22 21 21 22 21 19 19 18 18 17 17 16 15 15 15 14 14 14 14 14 14 14 14 13 13 13 13 13 12 12 12 12 12 12 11 11 11 11 11 11 11 11 11 11
21 22 21 21 21 21 22 22 22 20 19 19 18 17 17 16 16 15 15 14 14 14 14 14 14 14 14 13 13 13 13 12 12 12 12 12 12 11 11 11 11 11 11 11 11 10 11 11 11
21 21 21 21 20 20 21 22 22 21 20 19 19 18 17 16 15 15 15 14 14 14 14 13 13 13 13 13 13 13 12 12 12 12 12 11 11 11 11 11 11 11 10 10 10 10 10 10 10
20 20 21 21 20 19 20 22 22 21 20 19 18 17 16 16 15 15 14 14 14 13 13 13 13 13 13 12 12 12 12 12 12 12 11 11 11 11 11 10 10 10 10 10 10 10 10 10 10
20 21 21 20 20 19 19 21 21 20 19 18 18 17 16 15 15 14 14 13 13 13 13 13 12 12 12 12 12 12 12 11 11 11 11 11 11 10 10 10 10 10 10 10 10 9 9 10 10
Wind_Speed
2 0 1 2 2 5 9 6 6 5 5 6 6 6 7 7 6 4 3 3 3 4 5 7 7 8 9 9 9 10 10 10 10 9 10 10 10 10 10 9 9 9 8 8 8 7 7 7 6
0 0 1 1 2 7 8 6 7 7 6 5 6 7 8 7 6 4 3 4 4 5 5 7 8 8 8 9 9 10 10 10 10 10 10 11 10 11 11 11 10 10 9 8 8 7 7 7 7
1 1 1 1 4 6 7 6 7 7 5 4 5 6 5 5 5 3 3 4 5 6 6 9 8 8 9 9 10 10 10 11 11 11 11 11 11 11 11 11 11 10 9 9 8 7 7 8 8
1 1 1 5 10 8 7 7 6 7 5 4 5 6 5 6 4 5 5 6 7 7 7 9 9 9 9 9 10 10 11 11 11 11 11 11 11 11 11 10 10 10 9 9 8 7 7 7 7
0 1 5 8 9 7 7 6 5 5 5 5 5 8 7 6 6 7 7 7 7 7 7 9 9 9 9 9 10 10 11 11 11 10 11 11 10 10 10 10 10 10 9 9 8 7 7 7 7
1 2 5 8 8 7 6 5 5 6 7 6 6 7 6 5 6 7 7 7 7 7 7 8 9 8 8 9 9 9 10 10 10 10 10 10 10 10 11 11 10 10 9 8 7 7 7 7 7
2 3 6 9 8 6 5 4 4 5 6 4 3 6 6 6 5 5 6 6 6 6 6 6 7 7 7 8 8 9 9 9 10 10 10 10 10 10 10 10 10 10 10 9 8 8 8 7 7
1 4 7 7 7 6 5 4 3 3 4 4 2 3 5 5 5 6 6 6 6 5 5 5 6 5 5 6 8 7 8 8 8 9 9 8 7 8 9 9 10 10 10 10 10 8 7 7 7
1 4 6 6 6 6 5 4 3 2 5 4 3 4 5 8 7 7 6 5 5 4 4 4 4 5 4 5 6 5 6 6 5 6 7 4 5 6 6 10 10 10 9 9 10 9 7 5 7
1 4 4 4 4 5 5 4 4 4 4 4 5 6 7 8 7 6 5 5 4 3 3 2 3 3 4 4 4 4 4 4 4 5 5 5 5 6 6 8 8 8 8 8 8 7 4 3 5
3 4 5 4 4 5 5 3 2 3 2 2 3 6 8 8 7 5 4 4 3 3 2 2 2 3 3 3 3 3 3 3 4 5 5 5 5 4 5 4 5 5 5 5 5 3 4 4 5
5 5 4 4 5 5 4 3 2 1 1 1 2 5 8 8 7 5 4 4 3 3 2 2 2 2 2 3 3 3 3 3 3 4 5 4 3 3 4 3 4 3 3 4 3 3 4 4 5
5 4 4 5 5 4 4 3 2 1 1 2 4 6 7 7 6 5 3 3 3 3 3 2 2 2 2 2 2 2 3 3 4 4 4 5 3 3 3 3 3 3 3 3 3 3 3 4 4
5 6 5 4 4 3 4 2 1 1 2 4 5 5 5 5 4 4 3 3 3 3 3 3 2 1 2 2 2 2 3 3 3 4 4 5 4 3 3 3 3 3 3 3 2 3 3 3 4
7 6 5 3 3 3 3 2 2 2 4 5 5 5 4 4 4 3 3 3 2 2 3 3 2 2 2 2 2 3 3 3 3 3 4 5 5 4 3 3 3 3 3 3 2 3 3 3 3
5 4 3 2 1 2 4 3 2 2 4 5 4 5 4 4 3 3 2 2 2 2 3 3 2 2 2 2 2 2 3 3 3 3 4 4 4 4 3 3 3 3 3 3 2 2 2 2 3
4 3 3 2 1 2 4 3 2 3 5 5 5 4 5 4 3 2 2 2 2 2 2 3 3 2 2 2 2 2 3 2 2 3 3 4 4 4 3 3 3 3 3 3 2 2 2 2 3
3 3 3 2 1 3 5 4 3 3 5 6 5 5 5 4 3 3 2 2 2 2 2 2 3 2 3 2 2 2 2 2 2 3 3 3 4 4 3 2 3 3 2 3 2 2 2 2 2
3 4 3 1 1 3 5 5 5 4 5 5 5 5 5 4 4 3 3 3 3 3 3 2 2 2 2 2 2 1 1 1 1 2 3 3 3 4 3 2 2 3 2 3 2 2 2 1 1
4 5 3 1 1 4 5 7 5 5 6 6 5 5 5 5 4 4 3 3 3 3 3 3 2 2 1 1 1 1 1 1 1 1 2 2 2 3 3 2 2 2 2 2 2 2 1 1 1
5 5 4 3 2 4 5 5 5 5 5 5 5 5 5 5 5 4 3 3 3 2 2 2 2 2 2 1 1 2 2 1 1 1 1 2 2 2 2 2 2 2 1 1 2 1 1 1 1
3 3 4 4 5 3 4 5 3 5 5 6 7 6 6 6 6 5 4 3 3 2 2 3 3 3 2 2 2 2 1 1 1 1 1 1 1 1 1 1 1 1 1 1 1 1 1 1 1
2 1 3 5 6 6 5 6 3 4 6 6 7 7 7 7 6 6 5 4 3 3 3 3 3 2 2 2 2 1 1 0 1 1 1 1 1 1 1 1 1 1 1 1 2 2 2 1 1
2 3 3 4 5 6 5 6 4 3 4 4 5 6 7 7 7 6 5 4 3 3 3 3 2 2 2 2 2 2 1 1 1 0 1 1 1 1 1 2 1 1 1 1 1 1 1 1 1
4 4 3 4 4 4 1 5 4 1 1 3 4 5 6 7 7 6 6 5 4 3 3 3 3 2 2 2 1 2 1 2 2 1 1 1 1 1 2 2 2 2 1 1 1 1 1 1 2
4 5 4 4 5 4 3 5 2 1 1 2 3 4 5 6 6 6 6 5 5 4 4 4 3 3 2 2 2 2 2 2 2 2 2 2 1 1 2 2 2 2 2 2 1 1 2 2 2
3 4 3 5 7 7 5 4 3 2 2 3 4 4 5 6 6 6 6 6 5 5 5 5 4 3 3 3 2 2 2 2 2 3 2 2 2 1 2 2 2 3 2 3 2 2 2 2 2
3 2 3 4 5 6 7 7 4 3 3 3 4 4 4 5 5 6 6 6 6 5 5 5 4 4 3 3 2 2 2 2 2 3 3 3 3 2 2 2 3 3 3 3 3 3 3 3 3
4 4 5 4 5 5 7 4 1 3 3 4 4 5 5 5 5 6 6 6 5 5 5 5 4 4 3 3 2 2 2 2 2 3 3 3 3 3 3 3 3 3 4 4 4 5 4 4 4
6 7 7 6 6 6 8 6 1 2 3 4 4 4 5 5 5 5 5 5 5 6 5 5 4 4 3 3 3 2 2 2 3 3 3 4 4 3 3 4 4 4 4 4 5 5 5 5 5
Wind_Direction
214 219 244 246 152 96 85 81 86 87 73 65 66 69 68 52 40 63 68 79 70 79 81 88 67 59 63 65 64 62 62 62 63 67 70 71 73 73 73 73 75 76 74 72 72 71 76 80 78
308 230 232 250 126 109 91 91 88 79 94 97 78 72 71 64 54 72 85 88 87 83 78 76 70 63 64 65 64 60 60 61 63 65 69 71 69 68 69 70 69 70 68 66 69 68 73 77 77
150 273 344 85 91 92 105 99 98 93 98 95 86 64 55 53 48 67 77 108 103 87 78 78 67 65 65 65 64 60 60 62 64 63 64 66 66 65 65 66 66 65 63 61 62 66 74 74 74
220 176 104 99 94 80 96 110 115 113 93 78 98 87 77 49 40 70 89 106 100 87 79 77 64 65 66 65 63 61 59 59 61 63 64 64 64 63 61 60 60 60 61 61 62 68 77 76 76
240 130 117 107 97 93 93 101 116 106 98 90 99 98 89 63 67 88 98 98 93 86 78 79 69 64 65 65 61 61 59 57 59 61 63 62 62 61 58 56 56 55 55 58 59 68 74 74 76
145 146 131 119 110 106 103 105 111 103 105 98 101 104 94 86 89 98 102 99 93 90 84 84 83 70 66 64 62 60 58 57 57 60 61 61 62 60 57 55 52 49 51 55 58 67 69 68 76
104 112 119 124 123 117 107 105 97 100 98 86 102 110 115 105 101 110 109 103 93 89 86 83 87 91 88 75 64 61 58 56 56 57 57 58 60 59 57 55 50 49 53 56 58 67 69 68 78
76 127 128 130 134 119 116 117 93 79 88 89 106 113 124 129 130 129 120 110 101 91 86 80 80 79 83 86 75 66 60 56 57 56 52 54 65 67 62 59 54 54 56 58 58 67 71 71 78
188 145 135 133 135 126 136 133 106 98 111 103 93 86 102 131 142 141 130 119 109 96 87 85 83 78 76 75 79 80 74 62 65 67 57 48 58 64 67 57 54 55 57 61 61 61 68 78 92
126 134 121 114 124 132 136 128 129 143 129 119 119 111 122 144 155 153 145 138 127 114 103 91 87 80 76 73 77 69 67 64 53 53 55 47 50 52 53 66 56 57 61 67 63 60 67 57 75
102 116 120 121 123 134 136 123 130 154 133 131 143 148 152 159 165 164 157 146 135 128 115 112 92 82 73 75 67 63 56 52 44 41 48 45 52 56 53 60 64 60 55 58 63 56 50 54 56
112 106 120 125 129 141 143 138 117 106 52 70 139 154 162 170 172 173 168 159 155 145 138 126 100 83 76 74 69 59 51 46 43 37 40 41 41 40 43 42 45 45 45 44 41 35 49 53 60
122 116 111 118 127 133 136 139 125 91 53 110 134 155 168 175 176 173 171 171 167 154 149 150 139 116 92 83 67 64 55 45 52 40 34 41 39 36 37 41 38 31 31 35 38 31 44 51 53
118 124 124 127 135 146 150 152 169 134 136 139 145 153 163 168 174 174 176 184 181 168 157 151 147 125 104 89 78 67 60 56 48 44 35 41 41 35 33 35 33 26 21 24 36 48 49 52 55
135 134 133 132 147 157 183 175 179 174 168 163 164 163 164 169 177 189 188 197 189 178 162 155 152 141 117 96 83 73 66 64 56 48 38 42 36 31 35 29 28 22 18 24 42 56 54 55 58
161 173 172 143 180 198 231 226 136 163 185 182 177 169 172 178 184 186 192 195 184 184 175 160 158 166 143 117 100 90 78 66 58 51 39 38 33 34 34 32 24 17 21 33 56 60 62 59 50
191 201 198 173 172 220 231 241 176 192 205 205 200 191 184 179 186 182 187 178 164 177 178 168 166 171 152 131 116 96 83 71 56 51 41 32 31 29 38 28 19 19 24 31 41 52 55 62 52
206 223 225 228 172 235 236 242 232 215 218 221 215 208 196 184 177 164 166 159 152 154 152 160 169 168 153 143 128 107 85 74 61 50 42 36 26 25 32 27 17 24 23 23 26 45 46 55 55
241 242 253 275 248 255 252 257 255 226 220 228 215 206 197 185 158 142 140 140 142 147 146 135 148 142 149 151 154 142 127 101 79 49 38 37 28 21 26 16 14 23 21 17 18 38 50 43 28
227 241 256 245 225 266 265 266 254 231 223 226 222 202 194 179 159 140 134 137 145 145 142 135 138 121 132 146 176 166 115 92 80 56 40 32 25 21 18 15 10 14 13 21 22 30 24 8 332
236 252 267 284 280 241 268 259 223 210 209 213 216 208 195 187 178 161 151 132 128 141 144 140 139 131 126 135 142 130 121 115 94 76 54 26 23 24 29 21 8 357 348 357 357 356 14 328 327
252 271 264 261 267 268 263 284 234 203 209 213 210 203 200 192 186 173 161 143 139 146 145 143 138 131 131 132 130 155 150 131 63 28 39 29 17 13 24 13 4 354 349 345 328 331 318 310 289
294 269 240 252 265 271 246 268 259 199 229 226 213 204 201 194 189 183 172 162 156 150 149 146 140 128 131 133 130 158 163 134 91 61 41 12 14 0 -0 348 317 323 336 338 339 332 326 307 298
162 197 205 228 251 261 256 258 275 230 244 236 206 201 200 196 193 188 180 172 169 158 151 153 154 146 147 155 161 167 179 191 150 49 3 338 346 336 344 323 297 277 287 295 310 301 295 292 291
224 259 257 245 239 259 232 257 270 328 281 245 223 204 201 196 193 192 190 185 182 173 168 174 176 176 184 195 203 208 211 221 213 239 279 299 305 316 330 322 306 304 294 264 257 251 255 258 270
232 255 270 283 281 285 240 253 274 38 315 243 223 209 204 197 197 199 200 195 194 191 191 195 195 197 206 222 236 244 242 256 252 252 257 257 266 280 294 298 298 292 284 269 255 255 249 254 258
226 234 290 288 288 279 256 255 260 216 238 227 221 212 205 202 204 208 208 205 203 202 203 206 206 207 214 225 235 248 249 259 259 256 254 255 269 274 266 263 277 282 277 266 261 259 260 268 263
277 232 234 255 281 276 270 261 260 245 242 235 233 229 220 212 214 216 213 210 208 210 209 209 215 215 217 221 230 241 250 255 266 257 252 258 265 273 269 268 262 260 264 264 257 256 260 260 266
205 218 240 251 260 276 283 278 344 281 277 256 253 244 237 232 229 223 218 213 209 209 207 209 213 217 217 220 228 236 253 252 256 254 251 257 261 263 267 275 275 266 259 257 254 256 255 258 262
245 245 240 253 257 256 277 280 63 298 294 277 268 256 244 235 233 226 220 213 208 208 208 212 215 217 219 223 230 235 248 246 247 259 257 256 261 260 262 271 272 270 268 263 257 256 255 255 258
Height
1509 1509 1509 1510 1509 1511 1518 1520 1517 1519 1520 1523 1523 1522 1523 1525 1527 1533 1533 1530 1530 1530 1529 1528 1527 1527 1526 1526 1525 1524 1524 1523 1522 1521 1521 1520 1519 1519 1519 1518 1518 1518 1517 1517 1517 1517 1516 1516 1516
1510 1510 1511 1511 1508 1517 1524 1520 1521 1522 1524 1525 1525 1525 1525 1528 1531 1532 1531 1531 1531 1531 1530 1530 1529 1528 1528 1528 1527 1526 1525 1525 1524 1523 1522 1522 1521 1521 1520 1520 1519 1519 1518 1518 1518 1517 1517 1517 1517
1510 1511 1513 1510 1511 1517 1523 1521 1522 1524 1526 1526 1526 1528 1529 1532 1533 1533 1533 1532 1532 1532 1532 1531 1530 1530 1529 1529 1528 1528 1527 1526 1526 1525 1524 1523 1523 1522 1522 1521 1520 1520 1519 1518 1518 1518 1517 1517 1517
1512 1514 1514 1512 1519 1520 1520 1522 1523 1525 1527 1527 1527 1530 1533 1535 1535 1535 1533 1533 1533 1533 1533 1532 1532 1531 1531 1531 1530 1529 1529 1528 1527 1526 1526 1525 1524 1524 1523 1522 1521 1520 1520 1519 1519 1518 1518 1517 1517
1513 1513 1513 1518 1521 1522 1522 1523 1524 1524 1527 1528 1528 1531 1535 1537 1536 1536 1535 1535 1535 1535 1535 1534 1533 1533 1533 1532 1532 1531 1530 1529 1529 1528 1527 1526 1526 1525 1524 1523 1522 1521 1520 1520 1519 1518 1518 1518 1517
1515 1512 1515 1521 1524 1524 1525 1526 1526 1526 1528 1530 1531 1532 1536 1538 1537 1537 1537 1537 1537 1537 1537 1536 1535 1534 1534 1534 1533 1532 1532 1531 1530 1529 1528 1528 1527 1526 1525 1524 1523 1522 1521 1520 1519 1519 1519 1518 1518
1515 1513 1517 1520 1524 1525 1527 1528 1527 1527 1529 1532 1533 1533 1537 1538 1538 1538 1539 1539 1539 1538 1538 1538 1538 1536 1536 1535 1535 1534 1533 1532 1531 1531 1530 1529 1528 1527 1526 1525 1524 1523 1521 1521 1520 1519 1519 1518 1518
1516 1515 1519 1521 1524 1527 1528 1530 1530 1530 1532 1534 1534 1534 1537 1539 1539 1539 1540 1540 1540 1540 1540 1539 1539 1538 1538 1537 1536 1535 1535 1534 1533 1532 1531 1530 1529 1528 1527 1526 1525 1524 1523 1522 1521 1520 1520 1519 1519
1517 1517 1521 1522 1524 1527 1529 1530 1532 1533 1534 1535 1536 1537 1538 1539 1539 1540 1541 1541 1541 1541 1541 1541 1540 1540 1539 1539 1537 1537 1536 1535 1534 1533 1532 1531 1531 1530 1529 1527 1526 1525 1524 1523 1522 1521 1521 1520 1520
1517 1518 1522 1522 1523 1526 1529 1530 1532 1533 1533 1535 1537 1538 1538 1539 1540 1541 1541 1541 1542 1541 1541 1541 1541 1541 1541 1539 1539 1538 1537 1536 1536 1535 1534 1533 1532 1531 1530 1528 1527 1526 1525 1524 1523 1523 1522 1522 1523
1518 1520 1523 1525 1526 1528 1529 1531 1532 1532 1533 1535 1536 1537 1538 1539 1540 1541 1541 1542 1542 1542 1542 1542 1542 1542 1541 1541 1540 1539 1538 1537 1537 1536 1535 1534 1533 1532 1531 1530 1529 1528 1527 1526 1525 1525 1525 1525 1524
1521 1523 1525 1527 1529 1529 1530 1532 1533 1534 1535 1536 1536 1537 1538 1539 1540 1541 1541 1542 1542 1542 1542 1542 1542 1542 1542 1541 1541 1540 1539 1539 1538 1537 1536 1535 1534 1533 1532 1531 1530 1529 1528 1527 1526 1526 1526 1526 1526
1522 1525 1527 1529 1530 1531 1532 1532 1534 1535 1536 1536 1536 1537 1538 1539 1540 1541 1542 1542 1542 1542 1542 1543 1543 1542 1542 1542 1541 1540 1540 1539 1539 1537 1537 1536 1535 1534 1533 1532 1530 1529 1528 1527 1527 1527 1526 1526 1526
1524 1526 1528 1529 1530 1531 1532 1533 1534 1535 1536 1536 1536 1537 1538 1539 1540 1541 1541 1542 1542 1542 1543 1543 1543 1543 1543 1542 1542 1541 1540 1539 1539 1538 1537 1536 1535 1534 1533 1532 1530 1529 1528 1527 1527 1527 1527 1527 1527
1526 1526 1528 1529 1530 1531 1531 1532 1533 1535 1536 1536 1536 1537 1538 1539 1539 1540 1540 1541 1541 1542 1542 1542 1542 1543 1543 1542 1542 1541 1541 1540 1539 1538 1538 1537 1536 1535 1534 1532 1531 1530 1528 1527 1527 1527 1527 1527 1527
1524 1524 1527 1528 1529 1530 1531 1531 1532 1534 1535 1535 1536 1536 1537 1538 1539 1539 1540 1540 1541 1541 1542 1542 1542 1542 1542 1542 1542 1541 1541 1540 1539 1539 1538 1537 1536 1535 1534 1533 1532 1530 1529 1527 1526 1527 1527 1527 1527
1522 1524 1526 1528 1528 1528 1528 1529 1531 1533 1534 1534 1534 1535 1536 1537 1538 1538 1539 1539 1539 1540 1540 1541 1541 1541 1541 1541 1541 1541 1541 1540 1540 1539 1538 1537 1536 1535 1534 1533 1532 1531 1529 1528 1527 1527 1527 1527 1527
1524 1522 1524 1525 1526 1527 1527 1527 1529 1531 1532 1532 1532 1533 1534 1535 1536 1537 1537 1538 1538 1539 1539 1540 1540 1541 1541 1541 1541 1541 1540 1540 1539 1539 1538 1537 1536 1535 1534 1533 1532 1531 1530 1529 1528 1527 1527 1527 1527
1520 1522 1524 1524 1526 1527 1526 1526 1526 1528 1530 1530 1530 1531 1532 1534 1535 1535 1535 1536 1537 1538 1538 1538 1539 1540 1540 1540 1540 1540 1540 1539 1539 1538 1538 1537 1536 1535 1534 1533 1532 1531 1530 1529 1529 1528 1528 1528 1528
1521 1522 1523 1524 1526 1526 1524 1524 1523 1525 1527 1528 1528 1529 1530 1532 1533 1534 1534 1535 1536 1537 1537 1538 1538 1538 1538 1539 1539 1539 1539 1539 1538 1538 1537 1537 1536 1535 1534 1533 1532 1531 1530 1529 1528 1528 1528 1528 1528
1521 1521 1522 1524 1525 1524 1524 1521 1519 1521 1525 1526 1527 1528 1529 1530 1531 1532 1533 1534 1534 1535 1536 1536 1537 1538 1538 1538 1538 1538 1538 1538 1537 1537 1536 1536 1535 1534 1533 1532 1532 1531 1530 1529 1528 1528 1528 1528 1528
1521 1521 1522 1524 1524 1521 1524 1522 1514 1516 1520 1522 1524 1526 1527 1529 1530 1531 1532 1532 1533 1534 1535 1535 1536 1537 1537 1537 1537 1537 1537 1537 1536 1536 1536 1535 1534 1534 1533 1532 1531 1530 1530 1529 1528 1528 1527 1527 1527
1521 1522 1522 1522 1521 1521 1519 1521 1512 1513 1516 1517 1520 1522 1525 1527 1529 1530 1531 1531 1532 1533 1533 1534 1535 1535 1536 1536 1536 1536 1536 1536 1536 1535 1535 1534 1533 1533 1532 1531 1530 1530 1529 1528 1528 1527 1527 1527 1527
1523 1522 1522 1521 1519 1524 1517 1519 1513 1508 1511 1513 1516 1520 1523 1525 1527 1528 1529 1530 1531 1531 1532 1533 1533 1534 1534 1535 1535 1535 1535 1534 1534 1534 1533 1533 1532 1531 1531 1530 1529 1529 1528 1528 1527 1527 1526 1526 1526
1521 1521 1525 1525 1524 1519 1516 1518 1512 1507 1510 1513 1515 1518 1520 1522 1524 1526 1527 1528 1529 1529 1530 1531 1532 1532 1533 1533 1533 1533 1533 1533 1533 1532 1532 1531 1531 1530 1529 1529 1528 1528 1527 1526 1526 1526 1525 1525 1524
1519 1519 1528 1532 1526 1516 1516 1516 1508 1510 1512 1514 1515 1517 1519 1520 1522 1523 1524 1525 1526 1527 1528 1529 1530 1530 1531 1531 1531 1531 1531 1531 1531 1531 1530 1530 1529 1528 1528 1527 1527 1526 1525 1525 1525 1524 1524 1523 1523
1520 1520 1520 1523 1522 1522 1512 1509 1507 1509 1511 1513 1514 1516 1517 1518 1519 1521 1522 1523 1524 1525 1526 1526 1527 1527 1528 1528 1529 1529 1529 1529 1528 1528 1528 1527 1527 1526 1526 1525 1525 1524 1524 1523 1523 1522 1522 1522 1521
1521 1519 1522 1523 1531 1527 1514 1509 1507 1506 1508 1510 1511 1513 1515 1516 1517 1518 1519 1520 1521 1522 1523 1524 1524 1525 1525 1526 1526 1526 1526 1525 1525 1525 1525 1525 1525 1524 1523 1523 1522 1522 1521 1521 1521 1520 1520 1520 1519
1522 1522 1520 1521 1523 1528 1523 1510 1501 1504 1506 1509 1510 1512 1513 1514 1515 1515 1516 1517 1518 1519 1520 1521 1521 1522 1522 1522 1523 1523 1523 1522 1522 1522 1522 1522 1522 1521 1521 1521 1520 1519 1519 1518 1518 1518 1518 1517 1517
1518 1517 1518 1524 1523 1523 1522 1512 1503 1505 1506 1508 1509 1511 1511 1512 1513 1513 1514 1514 1515 1516 1517 1518 1518 1519 1519 1519 1520 1520 1519 1519 1519 1519 1519 1519 1519 1518 1518 1518 1517 1517 1516 1516 1515 1515 1515 1514 1514